Wind_Speed
35 36 35 34 33 32 31 29 27 25 24 23 22 21 20 19 18 16 14 12 11 10 10 8 7 6 5 4 3 2 1 0 1 1 2 2 3 3 4 4 5 5 6 7 7 8 8 8 8 8 8 8 7 7 8 8 9 10 11 11 12 12 13 12 12 12 11 11 11
36 35 34 33 32 31 30 28 26 24 22 21 20 20 19 18 17 16 14 12 10 9 9 8 7 6 5 4 3 1 1 0 1 1 2 2 3 3 4 5 5 6 6 7 7 8 8 8 8 8 8 8 7 8 8 9 10 11 11 12 12 13 13 12 12 12 12 12 12
35 34 33 32 31 30 29 27 25 24 22 21 20 19 19 18 17 16 14 12 10 9 8 7 6 5 4 3 2 1 1 0 1 1 2 2 3 4 4 5 5 6 6 7 7 7 8 8 8 8 8 8 8 9 9 10 11 12 12 13 13 13 13 12 12 12 12 12 12
34 33 32 31 30 29 27 26 25 24 23 22 21 20 19 17 16 15 13 12 10 9 8 7 6 5 4 3 2 1 1 1 1 2 2 3 3 4 4 5 5 6 6 6 7 7 7 7 8 8 8 9 9 10 11 11 12 13 13 13 13 13 13 12 12 12 12 13 13
33 32 31 30 29 27 26 25 25 24 23 22 21 20 19 17 15 14 13 12 10 9 7 6 5 4 3 3 2 1 1 1 2 2 2 3 3 4 4 5 5 5 6 6 6 7 7 8 8 8 9 10 10 11 12 12 13 13 13 13 13 13 12 12 12 12 13 13 13
32 31 30 29 27 26 25 24 24 24 23 22 22 21 19 17 15 14 13 12 10 8 7 6 5 4 3 2 2 1 1 1 2 2 2 3 3 4 4 5 5 5 6 6 7 7 8 8 9 9 10 11 11 12 12 13 14 14 14 13 13 13 12 12 12 13 13 14 14
31 30 29 28 26 25 25 24 24 23 23 22 21 20 19 17 15 13 12 11 9 8 7 6 5 4 3 3 2 2 2 2 2 2 3 3 3 4 4 4 5 5 6 6 7 8 8 9 10 10 11 12 12 13 13 14 14 14 14 14 13 12 12 12 13 13 14 15 15
30 29 28 27 25 25 24 24 24 23 22 22 20 19 17 16 14 13 12 10 9 8 7 6 5 4 3 3 3 2 2 2 2 2 3 3 3 4 4 5 5 6 6 7 8 8 9 10 11 11 12 13 13 14 14 14 14 14 14 14 13 13 12 13 13 14 14 15 16
30 29 27 26 25 25 24 24 23 23 22 21 19 17 16 15 14 12 11 10 9 8 6 6 5 4 4 3 3 2 2 2 2 2 3 3 4 4 4 5 5 6 7 8 9 9 10 11 12 12 13 14 14 14 14 14 14 14 14 14 14 13 13 13 14 15 15 16 16
30 29 28 27 26 25 25 24 23 22 21 20 18 17 15 14 13 12 11 10 9 8 7 6 5 4 4 3 3 2 1 1 2 2 3 4 4 5 5 6 6 7 8 9 10 11 12 12 13 13 14 14 14 14 14 14 13 13 13 14 14 14 14 14 15 15 16 16 17
30 29 28 27 27 26 25 24 23 22 21 20 18 17 15 14 12 11 10 9 9 8 7 6 5 5 4 3 2 1 1 2 2 3 3 4 5 5 6 7 7 8 9 10 11 12 13 13 14 14 15 14 14 14 13 13 13 13 14 14 15 15 16 16 16 16 17 17 18
30 29 29 28 27 26 26 25 23 22 20 19 18 16 15 13 12 11 10 9 9 8 7 6 5 4 4 3 2 1 1 2 3 3 4 4 5 6 6 7 8 9 10 11 12 13 13 14 15 15 15 14 14 13 13 13 14 14 14 15 16 16 17 17 17 17 17 18 18
31 30 29 29 28 27 25 24 23 21 20 19 17 16 15 13 12 11 10 10 9 8 8 6 5 4 3 2 1 1 1 2 3 4 4 5 5 6 7 8 9 10 10 11 12 13 14 14 15 15 15 14 14 13 13 13 14 15 16 16 17 18 18 18 18 18 18 18 18
31 31 30 29 27 26 25 24 23 21 20 18 17 16 14 13 12 11 10 10 9 8 7 6 5 4 2 1 0 1 2 3 3 4 5 5 6 7 8 9 10 10 11 12 13 13 14 14 14 14 14 14 14 13 13 14 15 15 16 17 18 18 19 19 19 19 19 19 19
31 30 29 28 27 25 24 23 22 20 19 18 16 15 14 13 12 11 10 10 9 8 7 6 5 3 2 0 1 2 2 3 4 4 5 6 7 8 8 9 10 11 12 13 13 14 14 14 13 13 13 13 14 14 14 15 15 16 17 17 18 19 19 19 19 19 19 19 20
31 30 29 27 26 25 23 22 21 20 19 17 16 15 14 14 12 11 10 10 9 8 7 5 4 3 1 0 1 2 3 4 4 5 6 7 7 8 9 10 11 12 13 13 14 14 14 13 13 12 13 13 14 14 15 16 16 17 17 18 18 19 19 19 19 19 19 20 20
30 29 27 26 25 24 22 22 21 19 18 17 16 15 14 14 13 12 11 10 9 7 6 5 4 2 1 1 1 2 3 4 5 6 6 7 8 9 10 11 12 12 13 14 14 14 14 13 12 12 12 13 14 15 16 17 17 18 18 18 19 19 19 19 19 19 20 20 20
29 28 26 25 24 23 22 21 20 19 18 17 16 15 14 13 13 12 11 9 8 7 6 5 3 2 1 1 1 2 3 4 5 6 7 8 9 9 10 11 12 13 13 14 14 14 14 13 13 13 13 14 15 16 17 17 18 18 19 19 19 19 19 19 19 19 20 20 21
28 27 25 24 23 22 21 20 19 19 18 17 16 15 14 13 12 12 10 9 8 6 5 4 3 2 1 1 2 3 4 5 5 6 7 8 9 9 10 11 12 13 13 14 14 14 14 13 13 14 14 15 16 17 17 18 18 19 19 19 19 19 19 19 19 19 20 20 21
27 26 24 23 22 21 20 20 19 18 17 17 16 15 14 13 12 11 10 9 7 5 4 3 3 2 1 2 2 3 4 5 5 6 7 8 9 10 11 11 12 13 14 14 14 14 14 14 14 14 15 16 17 17 18 18 19 19 19 19 19 19 19 19 19 20 20 20 20
26 25 23 22 21 21 20 19 19 18 17 17 16 15 14 13 11 10 9 8 6 5 4 3 2 2 2 2 3 3 4 5 5 6 7 8 9 10 11 12 13 13 14 15 15 15 14 14 15 15 16 16 17 18 18 19 19 19 19 19 19 19 19 19 20 20 20 19 19
25 24 22 22 21 20 20 19 18 18 17 16 15 14 13 12 11 9 8 7 5 4 3 2 2 2 2 2 3 4 4 5 5 6 7 8 9 10 11 12 13 14 15 15 16 15 15 15 15 16 16 17 17 18 18 19 19 19 19 19 19 19 19 20 20 20 19 19 18
24 23 22 21 21 20 20 19 18 18 17 16 15 14 12 11 10 8 7 6 5 4 3 2 2 2 2 3 3 4 4 5 6 7 8 9 10 11 12 13 13 14 15 16 16 16 15 15 15 16 16 16 17 18 18 19 19 19 19 19 19 20 20 21 21 20 19 18 17
24 23 22 21 21 20 20 19 18 18 16 15 14 13 11 10 9 8 7 5 4 3 3 2 2 2 2 3 4 4 5 6 7 7 8 9 10 11 12 13 14 15 16 16 16 15 14 14 15 16 16 16 17 18 18 19 18 18 18 19 20 21 22 22 21 20 19 18 16
24 23 22 21 21 20 19 19 18 17 16 15 13 12 11 9 8 7 6 5 4 3 3 2 2 2 2 3 4 4 5 7 8 9 10 10 11 12 13 14 15 15 16 17 16 15 13 14 14 15 16 16 17 18 18 18 18 18 18 19 20 22 23 23 22 21 19 18 17
24 23 22 21 21 20 19 18 17 16 15 14 12 11 10 9 7 6 5 5 4 3 2 2 2 2 3 3 4 5 6 7 8 10 11 12 13 13 14 14 15 16 17 17 16 15 14 14 14 15 15 16 17 18 18 18 18 18 18 19 20 22 22 23 23 22 20 19 17
24 23 22 21 20 20 19 18 17 15 14 13 12 10 9 8 7 6 5 4 4 3 2 2 2 2 3 4 4 5 7 8 9 10 11 12 13 14 15 15 16 16 17 17 16 15 14 15 15 15 15 16 17 18 18 18 18 18 19 20 21 21 22 22 23 22 22 21 19
24 23 22 21 20 19 18 17 16 15 13 12 11 10 9 7 7 6 5 4 3 3 2 2 2 3 3 4 5 6 8 9 10 11 11 12 13 14 15 16 16 17 17 17 16 15 15 15 15 15 16 16 17 18 18 18 18 19 20 20 21 21 21 22 22 23 23 22 22
23 23 22 21 20 19 17 16 15 14 12 11 10 9 8 7 6 5 5 4 3 2 2 2 2 3 4 5 6 7 8 9 10 11 12 13 14 15 16 16 17 17 17 17 16 15 15 15 16 16 16 16 17 17 18 18 19 19 20 20 20 21 21 22 22 23 23 23 23
23 22 21 20 19 18 16 15 14 12 11 10 9 8 7 6 6 5 4 3 2 2 2 2 3 4 5 6 7 8 9 10 11 12 13 14 15 16 16 17 17 17 17 17 16 15 15 16 16 16 16 17 17 17 18 18 19 20 21 21 21 21 21 22 23 23 23 24 24
23 22 21 20 19 17 15 14 13 11 10 9 8 7 7 6 5 4 3 3 2 2 2 3 4 5 6 7 8 9 10 11 12 13 14 15 16 16 17 17 17 17 17 17 16 16 16 16 16 16 17 17 17 17 18 19 20 21 21 21 21 21 22 23 23 24 24 24 25
22 21 20 19 18 16 15 13 12 11 9 8 8 7 6 5 4 4 3 2 2 2 3 4 5 6 7 8 9 10 11 12 13 14 15 15 16 17 17 17 17 18 17 17 16 16 16 16 17 17 17 18 17 18 19 20 21 21 21 21 21 21 22 23 23 24 25 25 25
21 20 19 18 17 15 14 12 11 10 9 8 7 6 5 5 4 3 2 2 2 3 4 5 6 7 8 9 10 11 12 13 14 15 15 16 16 17 18 18 18 17 17 17 16 16 16 17 17 17 18 18 18 19 20 20 21 21 21 21 21 21 22 23 24 25 25 26 26
20 19 18 17 16 14 13 11 10 9 8 8 7 6 5 4 3 2 2 2 3 4 5 6 7 8 9 10 11 12 13 14 15 15 16 16 17 17 18 18 18 17 17 16 16 16 16 17 17 18 18 18 18 19 20 21 22 22 21 21 21 21 22 23 24 25 26 26 26
20 19 17 16 15 13 12 11 10 9 8 7 6 5 4 3 2 2 2 2 3 4 5 6 7 8 9 10 12 13 14 15 15 16 16 17 17 18 18 18 18 17 17 16 16 16 17 17 18 18 19 19 19 20 21 21 22 21 21 21 21 22 23 24 25 26 26 26 25
19 18 17 15 14 13 11 10 9 8 8 7 6 5 4 3 2 1 2 3 4 5 6 7 8 9 10 11 12 13 14 15 16 16 16 17 17 18 18 18 18 17 17 17 17 17 17 18 18 19 19 19 20 21 21 21 21 20 20 20 21 22 24 25 26 26 26 24 23
17 16 16 15 13 12 11 10 9 8 7 7 6 5 3 2 2 2 2 3 5 6 7 8 9 10 11 12 13 14 14 15 16 16 17 17 17 17 18 18 18 18 17 17 17 17 17 18 18 19 19 20 21 21 21 21 20 19 20 21 22 23 24 26 26 25 23 21 19
16 15 14 13 12 11 10 9 8 8 7 6 5 4 3 2 2 3 4 5 6 7 8 9 10 11 12 13 13 14 14 15 16 16 16 16 17 17 17 18 18 18 17 17 17 17 18 18 19 19 20 20 21 21 21 20 20 20 20 22 23 24 25 25 24 22 19 17 16
14 13 12 12 11 11 10 9 8 7 6 5 4 3 2 2 3 4 5 6 7 8 9 10 11 12 12 13 14 14 15 15 16 16 16 16 16 16 17 17 18 18 18 17 18 18 18 18 19 19 20 20 21 21 20 20 20 20 21 22 23 24 24 23 21 18 15 15 16
13 12 11 11 11 10 9 9 8 7 6 5 4 3 2 3 4 4 5 6 7 8 9 10 11 12 12 13 14 15 16 16 16 16 16 16 16 16 16 17 17 18 18 18 18 18 18 18 19 19 20 20 20 20 20 20 20 21 22 22 23 24 23 20 16 14 14 17 20
12 11 11 10 10 9 9 8 7 6 5 4 3 3 3 3 4 5 6 7 8 8 9 10 11 12 13 14 14 16 16 17 16 16 16 16 16 16 16 17 18 18 18 18 19 19 18 19 19 20 20 20 20 20 20 20 20 21 22 23 23 22 20 17 14 14 17 21 24
Wind_Direction
163 163 162 161 161 160 158 157 157 158 158 158 157 155 152 149 145 142 140 138 134 130 128 127 126 123 120 118 117 109 99 33 331 314 308 306 306 308 310 311 312 314 316 317 316 317 319 321 323 325 328 330 334 338 339 340 342 344 344 345 345 345 344 345 345 344 343 342 340
163 163 163 162 161 159 157 156 156 156 157 156 154 152 150 148 145 142 141 138 135 133 131 130 128 125 124 122 120 119 105 4 304 296 295 297 299 302 306 309 312 313 315 317 318 319 320 322 324 326 329 331 334 337 339 339 340 341 342 342 342 342 343 344 344 343 341 340 338
164 163 162 161 160 158 156 155 156 156 155 154 153 152 151 149 146 143 141 138 137 136 134 132 130 128 127 126 128 130 140 241 278 284 288 293 298 303 307 311 315 316 317 318 319 320 322 323 325 327 329 331 333 336 338 339 339 340 340 340 340 341 341 342 342 341 340 338 336
164 163 162 161 160 158 157 156 156 155 155 154 153 153 152 150 147 144 142 140 139 138 136 134 133 132 131 131 134 145 179 238 266 281 289 294 301 308 311 314 317 320 320 321 321 323 324 326 328 329 330 332 334 336 337 337 337 337 337 337 338 339 340 341 341 340 338 335 333
164 164 163 162 161 159 158 157 155 155 155 154 154 154 153 151 149 146 144 142 140 139 138 138 137 135 135 139 144 162 197 236 259 279 290 300 307 313 317 318 320 321 322 322 324 325 326 328 329 330 330 332 334 336 336 335 334 334 334 335 336 338 339 340 340 338 336 333 330
164 164 163 162 161 160 158 157 155 155 155 156 156 155 154 152 149 147 144 142 141 141 142 142 141 140 141 148 159 180 207 237 261 279 293 305 314 319 323 324 324 325 325 325 326 326 327 328 330 330 330 332 334 335 334 333 333 332 332 333 335 338 339 340 339 337 334 331 328
165 164 163 162 162 160 158 156 156 155 156 158 158 157 154 152 149 146 144 144 144 144 144 144 144 145 149 157 170 189 213 239 261 282 297 311 318 323 327 328 328 327 328 327 328 329 329 329 330 331 331 332 334 335 334 334 332 331 331 333 336 338 340 340 339 336 333 329 327
166 165 164 163 162 160 158 157 156 157 158 159 159 156 153 150 148 146 146 147 146 145 146 147 148 150 157 165 176 193 214 239 266 289 305 315 322 326 328 329 330 330 329 330 330 330 330 330 331 332 332 332 334 334 334 334 333 333 333 335 337 339 341 340 338 336 332 328 325
165 165 164 163 162 160 158 157 158 158 158 158 157 154 151 149 148 148 148 147 146 148 149 150 152 156 164 172 182 199 221 250 281 304 317 321 323 325 328 329 331 333 332 332 331 331 331 332 332 333 333 333 335 335 335 335 335 335 336 337 338 339 339 339 337 334 331 327 324
165 165 163 162 161 159 158 157 158 158 157 155 152 150 148 148 148 149 148 148 149 150 151 151 155 161 168 176 190 206 236 275 302 319 325 325 325 326 328 330 332 333 334 333 333 333 332 332 333 333 334 334 336 337 337 337 337 338 338 339 339 338 338 338 337 334 330 326 322
165 164 163 161 159 158 157 156 156 156 154 152 149 148 147 148 149 149 149 151 152 151 150 153 157 163 170 180 193 217 266 306 318 324 327 327 328 329 330 331 332 333 334 334 334 334 334 333 333 334 335 336 337 339 340 340 340 340 340 340 339 338 337 336 335 333 329 325 321
163 162 161 159 158 158 156 155 154 154 152 150 148 148 148 149 149 150 151 152 152 150 150 153 158 163 171 181 196 240 301 321 325 326 326 328 330 331 332 333 333 334 334 335 335 335 336 335 335 336 337 338 339 341 343 343 342 342 341 340 339 337 336 334 333 331 328 324 320
161 160 159 157 157 157 155 154 153 152 151 149 149 149 149 149 149 150 152 152 151 150 151 153 158 162 167 175 196 287 320 326 327 326 326 328 329 330 331 332 333 334 335 336 337 337 338 338 338 338 338 340 341 343 345 344 344 343 342 340 338 336 334 333 331 329 326 323 320
159 158 157 156 156 156 154 153 152 151 151 150 150 151 150 149 149 151 152 151 150 150 152 155 157 161 163 164 228 329 330 329 327 326 327 327 328 330 332 333 333 335 336 338 339 340 341 341 341 341 341 342 343 344 345 346 345 343 341 339 336 334 332 331 329 328 325 322 319
156 156 156 156 156 155 154 152 151 151 151 151 151 152 152 149 149 151 152 151 150 151 153 155 155 157 159 154 346 337 334 330 327 326 328 329 330 331 333 334 335 336 338 340 341 343 344 344 344 344 344 344 344 345 345 345 344 341 339 336 334 332 330 329 328 327 325 322 319
155 155 155 156 155 155 154 152 152 152 152 152 152 153 152 150 150 151 152 150 150 151 153 154 153 150 144 113 351 339 334 330 327 327 329 331 334 335 336 337 338 339 339 340 342 344 345 347 347 347 347 346 346 345 345 344 342 339 337 334 332 330 329 328 327 325 324 322 319
154 154 155 156 156 155 154 153 153 153 153 153 153 154 153 151 150 150 149 149 149 150 151 151 148 141 128 78 358 341 334 331 330 332 334 336 337 339 340 340 341 341 341 342 343 344 345 346 348 349 349 348 347 346 344 342 339 337 334 332 330 329 328 327 326 324 323 321 319
153 154 156 156 155 155 154 154 154 154 154 153 153 153 152 151 150 148 147 147 148 148 147 145 142 135 113 47 0 346 337 335 336 337 339 340 340 341 342 342 342 342 342 343 343 344 344 346 347 349 350 349 347 345 342 340 337 334 333 331 330 328 327 326 325 324 322 321 319
154 155 155 156 155 154 154 155 155 154 154 153 153 152 151 150 149 148 146 146 147 146 142 136 131 124 89 24 0 349 341 339 342 343 344 343 343 342 342 343 343 343 343 343 343 344 344 345 348 349 350 348 346 343 340 337 334 332 331 330 329 327 327 326 325 323 322 320 318
154 155 155 155 155 154 155 155 155 154 153 153 152 150 148 147 147 147 144 143 143 141 136 128 120 107 74 25 4 354 348 345 345 346 346 346 345 344 344 343 343 342 342 343 343 344 345 347 349 350 350 347 343 340 337 334 332 331 330 329 328 327 326 325 325 323 321 320 318
154 154 154 155 155 154 154 154 154 153 153 152 150 149 147 146 146 144 142 139 137 134 129 121 107 86 55 26 9 0 354 349 349 349 349 348 348 347 345 344 343 342 341 342 342 344 346 349 351 350 348 344 340 336 334 332 330 329 328 327 327 326 326 325 324 323 321 319 318
153 153 154 154 154 154 154 154 153 153 151 150 149 148 146 145 144 142 139 135 132 128 123 111 93 62 37 18 7 0 356 353 352 351 350 350 350 348 346 344 342 341 340 341 342 345 348 350 350 347 343 339 336 333 331 330 329 328 327 326 326 326 326 325 324 323 321 319 318
153 153 153 154 154 153 153 153 152 152 150 149 147 146 145 143 142 139 135 131 127 124 115 100 73 43 22 7 358 353 351 351 352 351 351 350 350 349 347 344 343 342 342 342 344 347 349 348 345 341 338 335 332 331 330 328 327 326 326 326 327 327 327 326 324 323 321 320 318
152 153 153 153 154 153 153 152 152 150 149 147 146 145 144 142 139 136 132 129 126 120 110 92 61 36 18 3 353 347 344 344 346 348 349 349 349 348 347 345 344 343 342 342 346 349 347 341 337 335 333 331 330 329 328 327 326 325 325 327 328 329 328 327 325 324 323 321 320
153 153 153 154 153 153 153 152 151 149 148 147 146 145 142 140 137 135 132 130 126 120 108 87 61 37 18 7 356 347 343 342 343 344 346 346 346 346 345 345 344 343 342 343 347 347 341 334 332 331 330 329 328 327 326 325 324 324 325 327 329 330 330 328 326 325 324 323 321
154 154 154 154 154 153 152 151 150 149 147 146 145 143 141 139 137 136 134 131 127 119 105 85 62 34 19 8 359 353 350 348 346 346 345 344 344 344 344 344 344 343 342 343 346 344 338 333 332 331 330 328 327 326 324 323 323 323 325 327 330 331 330 328 327 326 325 324 323
154 154 154 154 153 152 151 151 150 149 147 146 145 143 142 140 140 139 137 133 127 118 104 81 52 28 13 3 359 359 357 355 352 349 347 345 344 343 343 343 343 342 342 342 343 341 337 333 332 331 330 328 326 324 323 322 321 323 325 327 329 330 330 328 326 325 324 324 323
155 154 154 154 152 150 150 150 149 148 147 146 145 144 143 143 143 142 140 134 128 119 101 73 41 18 6 0 0 0 360 358 355 352 349 346 344 343 343 342 342 342 341 341 342 340 336 332 331 330 329 327 325 323 321 320 321 322 324 326 328 329 328 327 325 324 323 323 322
155 155 154 152 150 149 149 149 148 147 147 147 146 146 146 146 146 145 142 137 131 117 88 54 27 9 2 2 2 1 0 359 356 352 348 346 344 343 342 342 342 340 340 340 341 339 334 331 330 328 327 326 323 321 319 319 320 322 324 325 326 327 327 326 324 323 322 321 320
156 154 153 151 149 148 148 148 147 147 147 147 148 148 149 150 150 148 142 137 125 96 57 30 14 6 2 1 0 0 1 359 356 352 349 346 344 342 341 341 340 340 340 340 341 338 333 330 329 327 326 324 322 320 318 318 320 321 322 323 324 325 325 324 323 322 320 319 318
155 154 152 150 148 147 147 147 147 147 148 148 150 151 153 153 150 145 138 124 98 65 34 16 6 4 0 358 358 358 358 356 355 353 350 346 343 341 340 340 340 339 340 341 341 337 332 329 327 326 324 323 321 319 318 318 320 320 321 322 323 324 323 322 321 320 318 317 316
155 154 152 150 148 147 147 147 147 148 149 151 153 155 155 151 147 138 125 103 72 42 22 10 3 359 357 356 356 356 355 354 354 352 349 346 343 340 339 339 339 340 341 341 340 336 331 329 327 325 324 322 320 318 318 318 319 319 320 320 321 322 321 320 318 317 316 315 313
155 153 152 150 148 148 147 147 148 150 151 154 155 155 152 147 142 132 114 80 44 25 14 5 1 358 356 354 353 353 353 352 351 350 348 345 342 340 338 338 340 340 341 341 339 335 331 328 326 324 323 322 320 318 318 318 319 319 319 319 319 319 319 317 316 314 313 312 311
155 154 153 151 150 148 148 149 150 152 155 156 155 152 148 141 133 120 94 57 30 17 10 5 1 358 356 353 352 351 350 349 348 347 346 343 341 339 338 338 339 340 340 340 338 335 331 328 326 325 323 322 320 319 319 319 319 318 318 318 318 317 317 315 314 313 311 311 310
156 155 154 152 151 150 150 150 152 155 156 156 152 149 145 139 128 102 66 37 21 12 8 4 360 357 354 352 351 349 348 347 346 345 344 342 340 338 338 338 338 339 340 339 338 336 332 328 326 325 323 322 320 320 319 319 319 318 317 316 316 316 315 314 312 311 311 310 309
158 157 155 154 153 152 152 153 155 158 158 154 148 142 137 129 115 74 33 17 9 5 2 360 356 354 352 351 350 349 348 346 345 343 343 342 341 339 338 337 338 339 340 339 338 336 332 328 326 325 324 322 321 321 320 319 318 317 316 315 315 314 314 313 311 310 310 309 309
160 160 158 156 154 153 154 155 158 159 156 151 144 136 125 109 81 41 14 2 358 357 356 354 354 352 350 348 347 347 346 344 344 343 342 342 341 340 339 338 338 339 340 339 338 336 333 328 327 326 325 323 322 322 321 320 318 316 315 314 314 313 312 311 310 309 309 309 310
162 162 161 158 156 154 155 158 159 157 152 145 138 131 121 98 57 28 9 358 355 354 353 352 352 350 348 345 343 342 342 342 343 343 342 342 342 341 340 339 339 339 339 339 338 336 333 328 327 326 325 324 323 322 321 319 317 316 315 315 314 312 311 310 309 308 308 311 315
163 164 163 161 158 157 157 158 155 151 144 139 132 125 111 75 39 20 8 0 355 353 351 350 349 347 344 341 339 338 338 339 340 341 342 343 342 342 341 340 338 338 338 338 338 337 334 329 327 326 326 325 323 322 321 319 317 316 316 315 313 312 310 309 308 309 313 319 323
161 164 164 162 160 160 159 156 150 144 138 133 123 107 78 43 25 14 7 360 354 350 348 346 344 343 341 339 337 335 334 335 337 339 341 342 342 342 341 339 337 337 338 338 338 337 334 330 327 327 326 325 324 322 321 319 317 316 316 315 313 311 309 309 311 316 322 326 325
158 161 162 160 160 160 158 152 146 141 137 128 109 79 46 24 14 7 2 357 352 348 344 342 340 339 338 337 336 334 334 334 336 338 339 340 341 341 341 339 338 337 338 338 339 337 333 329 328 327 327 325 324 323 321 320 318 317 316 314 312 310 310 313 319 326 328 327 326
Height
763 765 766 768 770 771 773 775 777 779 780 782 784 785 787 788 789 790 791 791 792 792 793 794 795 795 796 796 797 798 798 798 799 799 799 799 800 800 800 800 800 800 799 799 799 799 799 799 798 798 798 798 797 797 796 796 795 795 795 794 794 793 792 792 791 791 790 790 790
763 765 766 768 770 771 773 775 777 779 781 783 784 785 786 788 789 789 790 791 791 792 793 794 795 795 796 796 797 797 798 798 799 799 799 799 799 800 799 799 799 799 799 799 799 799 798 798 798 798 797 797 797 796 796 795 795 794 794 793 793 792 791 791 790 790 790 789 789
763 765 766 768 770 771 773 775 777 779 781 783 784 785 786 787 788 789 790 790 791 792 793 794 794 795 796 796 797 797 798 798 799 799 799 799 799 799 799 799 799 799 799 799 798 798 798 797 797 797 797 796 796 795 795 795 794 794 793 792 792 791 790 790 790 789 788 788 787
764 765 767 768 770 771 773 775 777 779 781 782 784 785 786 787 788 789 790 790 791 792 793 794 794 795 795 796 797 797 798 798 798 799 799 799 799 799 799 799 799 798 798 798 798 797 797 797 797 796 796 795 795 795 794 794 793 793 792 791 791 790 790 789 789 788 787 787 786
764 766 767 769 770 772 773 775 777 779 780 782 784 785 786 787 788 789 789 790 791 792 793 793 794 795 795 796 796 797 797 798 798 799 799 799 799 799 799 798 798 798 798 798 797 797 797 796 796 796 795 795 795 794 794 793 792 792 791 790 790 789 789 788 788 787 786 786 785
765 766 768 769 770 772 774 775 777 779 780 782 784 785 786 787 788 788 789 790 791 792 793 793 794 795 795 796 796 797 797 798 798 799 799 799 799 798 798 798 798 798 797 797 797 796 796 796 795 795 795 794 794 793 793 792 791 791 790 790 789 788 788 787 786 786 785 785 785
765 766 768 770 771 772 774 776 777 779 780 782 784 785 786 786 787 788 789 790 791 792 792 793 794 794 795 795 796 797 797 798 798 798 798 798 798 798 798 798 797 797 797 796 796 796 795 795 795 794 794 793 793 792 792 791 790 790 789 788 788 787 787 786 785 785 785 784 784
765 767 768 770 771 773 774 776 777 779 781 782 784 785 786 786 787 788 789 790 790 791 792 793 794 794 795 795 796 797 797 798 798 798 798 798 798 798 797 797 797 796 796 796 795 795 795 795 794 794 793 792 792 791 791 790 789 789 788 787 787 786 786 785 785 784 784 783 782
765 767 769 770 771 773 775 776 778 779 781 783 784 785 786 786 787 788 789 790 790 791 792 793 793 794 795 795 796 797 797 797 798 798 798 797 797 797 797 797 796 796 795 795 795 795 794 794 793 793 792 792 791 790 790 789 788 787 787 786 785 785 785 785 784 783 783 782 781
765 767 769 770 772 774 775 777 778 780 781 783 784 785 786 787 787 788 789 790 790 791 792 793 793 794 795 795 796 796 797 797 797 797 797 797 797 797 796 796 796 795 795 795 794 794 793 793 792 792 791 791 790 790 789 788 787 786 786 785 785 784 784 784 783 783 782 781 780
765 767 769 770 772 774 775 777 779 780 782 783 784 785 786 786 787 788 789 789 790 791 792 792 793 794 795 795 796 796 796 797 797 797 797 796 796 796 796 795 795 795 794 794 793 793 792 792 791 791 790 790 789 788 788 787 786 785 785 785 784 783 783 782 782 782 781 780 780
765 767 769 770 772 774 775 777 779 780 782 783 784 785 786 786 787 788 788 789 790 790 791 792 793 794 795 795 795 796 796 796 796 796 796 796 796 795 795 795 795 794 794 793 792 792 792 791 790 790 789 789 788 787 787 786 785 785 784 784 783 783 782 781 781 781 780 779 779
765 767 769 771 773 774 776 777 779 780 782 783 784 785 785 786 787 788 788 789 790 790 791 792 793 794 794 795 795 796 796 796 796 796 796 795 795 795 795 794 794 793 793 792 792 791 791 790 790 789 788 788 787 787 786 785 785 784 783 783 782 782 781 780 780 780 779 778 777
766 768 770 771 773 775 776 777 779 780 782 783 784 785 785 786 787 788 788 789 790 790 791 792 793 794 794 795 795 795 795 795 795 795 795 795 795 795 794 794 793 793 792 791 791 790 790 789 789 788 787 787 786 786 785 785 784 783 783 782 781 781 780 780 779 779 778 777 776
767 768 770 772 773 775 776 777 779 780 782 783 784 785 785 786 787 787 788 789 789 790 791 792 793 793 794 794 795 795 795 795 795 795 795 795 794 794 793 793 792 792 791 791 790 790 789 789 788 787 787 786 785 785 785 784 783 783 782 782 781 780 780 779 778 777 777 776 775
767 769 770 772 774 775 776 777 779 780 782 783 784 785 785 786 787 787 788 788 789 790 791 792 793 793 794 794 794 795 795 795 795 795 794 794 794 793 793 792 791 791 790 790 790 789 789 788 787 787 786 785 785 784 784 783 783 782 781 781 780 780 779 778 777 776 775 775 774
768 770 771 772 774 775 776 778 779 780 782 783 784 785 785 786 786 787 788 788 789 790 791 792 792 793 793 794 794 794 794 794 794 794 794 793 793 792 792 791 791 790 790 789 789 788 788 787 787 786 785 785 784 784 783 782 782 781 781 780 780 779 778 777 776 775 775 774 773
768 770 771 773 774 775 776 778 779 780 782 783 784 785 785 786 786 787 788 789 789 790 791 792 792 793 793 793 793 794 794 794 794 793 793 793 792 792 791 790 790 790 789 788 788 787 787 786 786 785 785 784 784 783 782 782 781 780 780 779 779 778 777 776 775 775 774 772 771
769 770 772 773 774 775 777 778 780 781 782 783 784 785 785 786 786 787 788 788 789 790 791 791 792 792 793 793 793 793 793 793 793 793 793 792 792 791 790 790 789 789 788 788 787 787 786 786 785 785 784 783 783 782 781 781 780 780 779 778 777 777 776 775 775 774 773 771 770
769 770 772 773 775 776 777 779 780 781 782 783 784 785 785 786 786 787 788 788 789 790 791 791 792 792 792 792 792 793 793 793 793 792 792 791 791 790 790 789 789 788 788 787 787 786 785 785 784 784 783 782 782 781 780 780 779 779 778 777 776 776 775 774 773 772 771 770 769
769 771 772 774 775 776 777 779 780 781 782 783 784 785 785 786 786 787 788 789 789 790 790 791 791 792 792 792 792 792 792 792 792 792 791 791 790 790 789 789 788 787 787 786 786 785 785 784 783 783 782 782 781 780 780 779 778 778 777 776 775 775 774 773 772 771 770 769 768
770 771 773 774 775 776 778 779 780 781 782 783 784 785 785 786 787 787 788 789 789 790 790 791 791 791 791 791 792 792 792 792 792 791 791 790 790 789 788 788 787 787 786 786 785 784 784 783 783 782 782 781 780 780 779 778 777 776 776 775 775 774 773 772 771 770 769 768 767
770 771 773 774 775 777 778 779 780 781 782 783 784 785 785 786 787 787 788 789 789 790 790 790 791 791 791 791 791 791 791 791 791 791 790 790 789 788 788 787 787 786 785 785 784 784 783 782 782 781 781 780 780 779 778 777 776 775 775 774 773 773 772 771 770 769 768 767 766
770 772 773 775 776 777 778 779 780 781 782 783 784 785 785 786 787 787 788 789 789 790 790 790 790 790 791 791 791 791 791 791 790 790 790 789 788 788 787 787 786 785 785 784 784 783 783 782 782 781 780 780 779 778 777 776 776 775 774 773 772 771 770 770 769 768 767 765 765
770 772 773 775 776 777 778 780 780 781 783 783 784 785 785 786 787 787 788 789 789 790 790 790 790 790 790 791 791 791 790 790 790 789 789 788 788 787 786 786 785 785 784 784 783 783 782 782 781 780 780 779 778 777 776 776 775 774 773 772 771 770 769 768 767 766 765 764 763
770 772 773 775 776 777 779 780 781 782 783 784 784 785 785 786 787 787 788 789 789 789 790 790 790 790 790 790 790 790 790 790 789 788 788 787 787 786 786 785 785 784 784 783 782 782 782 781 780 780 779 778 777 776 775 775 774 773 772 771 770 769 768 767 766 765 764 763 762
771 772 774 775 776 777 779 780 781 782 783 784 784 785 785 786 787 787 788 788 789 789 789 790 790 790 790 790 790 790 789 789 788 788 787 787 786 785 785 785 784 783 783 782 782 781 781 780 780 779 778 777 776 775 775 774 773 772 771 770 769 768 767 766 765 763 762 761 760
771 772 774 775 776 778 779 780 781 782 783 784 784 785 785 786 787 787 788 788 789 789 789 789 790 790 790 790 790 789 789 788 788 787 787 786 786 785 785 784 783 783 782 781 781 780 780 779 779 778 777 776 775 775 774 773 772 771 770 769 768 767 766 765 764 762 761 760 759
771 772 774 775 777 778 779 780 781 782 783 784 784 785 785 786 787 787 788 788 788 789 789 789 789 789 789 789 789 789 788 788 787 786 786 785 785 785 784 783 783 782 781 780 780 779 779 778 778 777 776 776 775 774 773 772 771 770 769 768 767 766 765 764 762 761 760 759 757
771 773 774 775 777 778 779 780 781 782 783 784 784 785 785 786 787 787 787 788 788 788 789 789 789 789 789 789 788 788 787 787 786 786 785 785 784 784 783 783 782 781 780 780 779 778 778 777 777 776 775 775 774 773 772 771 770 769 768 767 766 765 764 762 761 760 759 757 756
772 773 774 776 777 778 779 780 781 782 783 784 784 785 785 786 786 787 787 787 788 788 788 788 789 788 788 788 788 787 787 786 786 785 785 784 784 783 782 782 781 780 779 779 778 777 777 776 776 775 775 774 773 772 770 770 769 768 767 766 765 764 762 761 760 759 757 756 755
772 773 775 776 777 778 780 780 781 782 783 784 784 785 785 786 786 787 787 787 788 788 788 788 788 788 788 787 787 786 786 785 785 785 784 784 783 782 781 781 780 779 778 778 777 777 776 775 775 774 773 773 772 770 770 768 767 766 765 765 764 762 761 760 759 757 756 755 754
773 774 775 776 777 779 780 780 781 782 783 784 784 785 785 786 786 786 787 787 787 787 787 787 787 787 787 786 786 785 785 785 784 784 783 783 782 781 780 780 779 778 778 777 776 776 775 775 774 773 772 771 770 769 768 767 766 765 764 763 762 761 760 759 758 756 755 753 752
773 774 775 776 778 779 780 781 781 782 783 784 784 785 785 786 786 786 787 787 787 787 787 787 787 786 786 786 785 785 785 784 784 783 783 782 781 780 780 779 778 778 777 776 775 775 774 774 773 772 771 770 769 768 767 766 765 764 763 762 761 760 759 758 756 755 753 752 751
773 774 775 777 778 779 780 781 781 782 783 784 784 785 785 785 786 786 786 787 787 787 787 787 786 786 785 785 785 784 784 783 783 782 782 781 780 779 779 778 777 777 776 775 775 774 773 773 772 771 770 769 768 767 765 765 763 762 761 760 760 758 757 756 755 753 751 750 749
773 775 776 777 778 779 780 781 781 782 783 784 784 785 785 785 785 786 786 786 786 786 786 786 786 785 785 785 784 784 783 783 782 781 781 780 779 778 778 777 776 776 775 775 774 773 772 772 771 770 769 767 766 765 764 763 762 761 760 759 758 757 756 754 753 751 750 749 748
774 775 776 777 778 779 780 781 781 782 783 783 784 784 785 785 785 786 786 786 786 786 785 785 785 785 784 784 784 783 783 782 781 781 780 779 779 778 777 776 776 775 775 774 773 772 771 770 770 769 768 766 765 764 763 762 761 760 759 758 756 755 754 752 751 750 749 748 747
774 775 776 777 778 779 780 781 781 782 783 783 784 784 785 785 785 785 785 785 785 785 785 784 784 784 784 783 783 783 782 782 781 780 779 779 778 777 776 775 775 775 774 773 772 771 770 770 769 768 767 765 764 763 762 760 760 758 757 756 755 754 752 751 749 748 747 747 746
775 776 777 778 779 779 780 781 781 782 783 783 784 784 785 785 785 785 785 785 785 784 784 784 784 783 783 783 782 782 781 781 780 780 779 778 777 777 776 775 774 774 773 772 772 770 770 769 768 767 766 765 763 762 761 760 758 757 756 755 753 752 750 749 748 747 746 745 745
775 776 777 778 779 780 780 781 781 782 783 783 784 784 785 785 785 785 785 784 784 784 784 783 783 783 783 782 782 781 780 780 780 779 778 778 777 776 775 775 774 773 772 771 771 770 769 768 767 766 765 764 762 761 760 759 757 756 755 754 752 750 748 747 747 746 745 745 744
775 776 777 778 779 780 780 781 781 782 783 783 784 784 784 784 784 784 784 784 784 783 783 783 783 782 782 781 781 780 780 779 779 778 778 777 776 776 775 774 773 772 771 770 770 769 768 767 766 765 764 763 762 760 759 758 756 755 754 752 750 749 747 746 746 745 745 743 742